Weather in Serzhantovo

Russia / Primorsky Krai     44°26′34″N   135°44′54″E
temp.,
°C
wind,
m/s
gust,
m/s
humid.,
%
clouds,
%
prec.,
mm/h
press.,
hPa
HPBL,
m
18 may, wed
wed1801:00+7nw227540 0.0 101225
04:00+7nw227221 0.0 101229
07:00+11nw226217 0.0 101159
10:00+19sw253273 0.0 10111307
13:00+20s373696 0.0 10091854
16:00+14sse0270100 0.4 1010352
19:00+12wnw2483100 0.8 1012163
22:00+10wnw2291100 1.3 101434
19 may, thu
thu1901:00+9nnw2289100 0.0 101325
04:00+8nnw1189100 0.0 101413
07:00+9nnw12840 0.0 101468
10:00+17sse11475 0.0 1012955
13:00+19se33405 0.0 10111429
16:00+17se34525 0.0 1009568
19:00+13se22715 0.0 1009218
22:00+9nw218989 0.0 101014
20 may, fri
fri2001:00+10nw2383100 0.0 100947
04:00+11nw2268100 0.0 100837
07:00+12nw227213 0.0 100887
10:00+21wnw134419 0.0 10071334
13:00+23ssw1432100 0.0 10061881
16:00+21se34405 0.0 10061032
19:00+16se126488 0.0 1006161
22:00+12ne118093 0.0 100711
21 may, sat
sat2101:00+10sw0089100 0.0 100712
04:00+10nw118913 0.0 100610
07:00+13sse01755 0.0 100563
10:00+19sse225243 0.0 1004449
13:00+21sse454994 0.0 1003589
16:00+18se3456100 0.0 1001347
19:00+14ese2275100 0.0 1000149
22:00+14nnw129499 1.6 100159
22 may, sun
sun2201:00+12nw1194100 0.0 100212
04:00+12nnw2293100 0.0 100223
07:00+14nnw1287100 0.0 100272
10:00+16sse2179100 0.7 1003386
13:00+12sse4594100 2.7 1006255
16:00+13sse1288100 3.8 100595
19:00+9se229679 0.0 1007176
22:00+9nnw119754 0.0 100990